Time,TemperatureF,DewpointF,PressureIn,WindDirection,WindDirectionDegrees,WindSpeedMPH,WindSpeedGustMPH,Humidity,HourlyPrecipIn,Conditions,Clouds,dailyrainin,SoftwareType,DateUTC
2013-05-07 00:12:00,71.0,63.0,30.03,West,276,3.0,7.0,77,0.00,,,0.00,weatherlink.com 1.10,2013-05-07 04:12:00,
2013-05-07 00:27:00,71.1,64.0,30.03,West,276,5.0,7.0,77,0.00,,,0.00,weatherlink.com 1.10,2013-05-07 04:27:00,
2013-05-07 00:42:00,71.1,64.0,30.02,West,276,3.0,7.0,77,0.00,,,0.00,weatherlink.com 1.10,2013-05-07 04:42:00,
2013-05-07 00:57:00,70.9,63.0,30.02,West,276,3.0,5.0,76,0.00,,,0.00,weatherlink.com 1.10,2013-05-07 04:57:00,
2013-05-07 01:12:00,70.9,63.0,30.02,West,276,1.0,7.0,76,0.00,,,0.00,weatherlink.com 1.10,2013-05-07 05:12:00,
2013-05-07 01:28:00,70.8,63.0,30.02,West,271,3.0,8.0,75,0.00,,,0.00,weatherlink.com 1.10,2013-05-07 05:28:00,
2013-05-07 01:42:00,71.1,62.0,30.01,West,266,3.0,9.0,74,0.00,,,0.00,weatherlink.com 1.10,2013-05-07 05:42:00,
2013-05-07 01:57:00,71.0,62.0,30.00,West,264,3.0,6.0,74,0.00,,,0.00,weatherlink.com 1.10,2013-05-07 05:57:00,
2013-05-07 02:12:00,71.0,63.0,30.00,West,264,2.0,6.0,75,0.00,,,0.00,weatherlink.com 1.10,2013-05-07 06:12:00,
2013-05-07 02:27:00,71.1,63.0,30.00,West,261,2.0,7.0,75,0.00,,,0.00,weatherlink.com 1.10,2013-05-07 06:27:00,
2013-05-07 02:42:00,70.9,63.0,30.00,West,262,5.0,7.0,76,0.00,,,0.00,weatherlink.com 1.10,2013-05-07 06:42:00,
2013-05-07 02:57:00,70.6,63.0,30.00,West,262,2.0,5.0,76,0.00,,,0.00,weatherlink.com 1.10,2013-05-07 06:57:00,
2013-05-07 03:12:00,70.6,63.0,30.00,West,262,2.0,5.0,76,0.00,,,0.00,weatherlink.com 1.10,2013-05-07 07:12:00,
2013-05-07 03:27:00,70.5,63.0,30.00,West,262,1.0,4.0,76,0.00,,,0.00,weatherlink.com 1.10,2013-05-07 07:27:00,
2013-05-07 03:42:00,70.4,62.0,30.00,West,262,3.0,7.0,75,0.00,,,0.00,weatherlink.com 1.10,2013-05-07 07:42:00,
2013-05-07 03:57:00,70.2,62.0,30.00,West,262,0.0,4.0,75,0.00,,,0.00,weatherlink.com 1.10,2013-05-07 07:57:00,
2013-05-07 04:12:00,69.8,62.0,30.00,NNE,30,7.0,7.0,77,0.00,,,0.00,weatherlink.com 1.10,2013-05-07 08:12:00,
2013-05-07 04:27:00,68.2,62.0,30.00,NNE,32,5.0,9.0,80,0.00,,,0.00,weatherlink.com 1.10,2013-05-07 08:27:00,
2013-05-07 04:42:00,66.5,60.0,30.00,NNE,33,4.0,7.0,80,0.00,,,0.00,weatherlink.com 1.10,2013-05-07 08:42:00,
2013-05-07 04:57:00,65.5,60.0,30.00,NNE,33,1.0,4.0,82,0.00,,,0.00,weatherlink.com 1.10,2013-05-07 08:57:00,
2013-05-07 05:13:00,64.6,59.0,30.01,NNE,33,3.0,6.0,82,0.00,,,0.00,weatherlink.com 1.10,2013-05-07 09:13:00,
2013-05-07 05:28:00,64.1,59.0,30.01,NNE,33,3.0,6.0,84,0.00,,,0.00,weatherlink.com 1.10,2013-05-07 09:28:00,
2013-05-07 05:43:00,63.7,59.0,30.01,NNE,33,3.0,5.0,84,0.00,,,0.00,weatherlink.com 1.10,2013-05-07 09:43:00,
2013-05-07 05:58:00,63.3,59.0,30.02,NNE,33,3.0,5.0,85,0.00,,,0.00,weatherlink.com 1.10,2013-05-07 09:58:00,
2013-05-07 06:13:00,63.0,59.0,30.02,NNE,33,2.0,5.0,85,0.00,,,0.00,weatherlink.com 1.10,2013-05-07 10:13:00,
2013-05-07 06:28:00,62.7,59.0,30.02,NNE,33,3.0,5.0,86,0.00,,,0.00,weatherlink.com 1.10,2013-05-07 10:28:00,
2013-05-07 06:43:00,62.5,58.0,30.02,NNE,33,1.0,4.0,86,0.00,,,0.00,weatherlink.com 1.10,2013-05-07 10:43:00,
2013-05-07 06:58:00,62.3,58.0,30.03,NE,46,2.0,4.0,86,0.00,,,0.00,weatherlink.com 1.10,2013-05-07 10:58:00,
2013-05-07 07:13:00,62.1,58.0,30.04,NE,46,2.0,5.0,87,0.00,,,0.00,weatherlink.com 1.10,2013-05-07 11:13:00,
2013-05-07 07:28:00,62.2,58.0,30.04,NE,46,3.0,5.0,87,0.00,,,0.00,weatherlink.com 1.10,2013-05-07 11:28:00,
2013-05-07 07:43:00,62.7,59.0,30.05,NE,52,5.0,8.0,87,0.00,,,0.00,weatherlink.com 1.10,2013-05-07 11:43:00,
2013-05-07 07:58:00,63.2,59.0,30.05,NE,52,4.0,6.0,87,0.00,,,0.00,weatherlink.com 1.10,2013-05-07 11:58:00,
2013-05-07 08:13:00,63.9,60.0,30.05,NE,49,2.0,7.0,87,0.00,,,0.00,weatherlink.com 1.10,2013-05-07 12:13:00,
2013-05-07 08:28:00,64.7,61.0,30.06,NE,51,7.0,9.0,86,0.00,,,0.00,weatherlink.com 1.10,2013-05-07 12:28:00,
2013-05-07 08:43:00,65.3,61.0,30.06,NE,51,4.0,7.0,85,0.00,,,0.00,weatherlink.com 1.10,2013-05-07 12:43:00,
2013-05-07 08:58:00,66.3,61.0,30.06,NE,52,6.0,8.0,84,0.00,,,0.00,weatherlink.com 1.10,2013-05-07 12:58:00,
2013-05-07 09:13:00,67.4,62.0,30.07,NE,52,5.0,5.0,83,0.00,,,0.00,weatherlink.com 1.10,2013-05-07 13:13:00,
2013-05-07 09:28:00,68.6,63.0,30.07,NE,52,4.0,7.0,81,0.00,,,0.00,weatherlink.com 1.10,2013-05-07 13:28:00,
2013-05-07 09:43:00,69.9,64.0,30.07,NE,53,2.0,6.0,80,0.00,,,0.00,weatherlink.com 1.10,2013-05-07 13:43:00,
2013-05-07 09:58:00,70.9,64.0,30.07,NE,35,0.0,1.0,78,0.00,,,0.00,weatherlink.com 1.10,2013-05-07 13:58:00,
2013-05-07 10:13:00,71.5,64.0,30.07,NE,35,1.0,4.0,78,0.00,,,0.00,weatherlink.com 1.10,2013-05-07 14:13:00,
2013-05-07 10:28:00,72.6,65.0,30.08,East,81,0.0,6.0,76,0.00,,,0.00,weatherlink.com 1.10,2013-05-07 14:28:00,
2013-05-07 10:43:00,72.7,64.0,30.07,West,266,0.0,7.0,75,0.00,,,0.00,weatherlink.com 1.10,2013-05-07 14:43:00,
2013-05-07 10:58:00,73.1,64.0,30.07,West,273,8.0,9.0,74,0.00,,,0.00,weatherlink.com 1.10,2013-05-07 14:58:00,
2013-05-07 11:13:00,73.6,64.0,30.08,West,278,7.0,10.0,73,0.00,,,0.00,weatherlink.com 1.10,2013-05-07 15:13:00,
2013-05-07 11:28:00,74.0,65.0,30.08,WSW,254,2.0,9.0,73,0.00,,,0.00,weatherlink.com 1.10,2013-05-07 15:28:00,
2013-05-07 11:43:00,74.3,65.0,30.08,West,266,6.0,15.0,72,0.00,,,0.00,weatherlink.com 1.10,2013-05-07 15:43:00,
2013-05-07 11:58:00,74.3,65.0,30.08,West,266,8.0,14.0,72,0.00,,,0.00,weatherlink.com 1.10,2013-05-07 15:58:00,
2013-05-07 12:13:00,74.5,65.0,30.08,NW,314,10.0,15.0,73,0.00,,,0.00,weatherlink.com 1.10,2013-05-07 16:13:00,
2013-05-07 12:28:00,74.6,65.0,30.08,West,279,5.0,15.0,73,0.00,,,0.00,weatherlink.com 1.10,2013-05-07 16:28:00,
2013-05-07 12:43:00,74.4,65.0,30.08,WSW,258,5.0,15.0,72,0.00,,,0.00,weatherlink.com 1.10,2013-05-07 16:43:00,
2013-05-07 12:58:00,74.9,65.0,30.07,West,276,8.0,14.0,72,0.00,,,0.00,weatherlink.com 1.10,2013-05-07 16:58:00,
2013-05-07 13:13:00,74.9,65.0,30.06,WNW,295,4.0,14.0,72,0.00,,,0.00,weatherlink.com 1.10,2013-05-07 17:13:00,
2013-05-07 13:28:00,75.2,66.0,30.06,WSW,243,4.0,11.0,73,0.00,,,0.00,weatherlink.com 1.10,2013-05-07 17:28:00,
2013-05-07 13:43:00,75.6,66.0,30.06,West,273,8.0,14.0,71,0.00,,,0.00,weatherlink.com 1.10,2013-05-07 17:43:00,
2013-05-07 13:58:00,75.5,65.0,30.06,WNW,288,9.0,15.0,70,0.00,,,0.00,weatherlink.com 1.10,2013-05-07 17:58:00,
2013-05-07 14:13:00,75.4,65.0,30.05,WSW,251,3.0,16.0,70,0.00,,,0.00,weatherlink.com 1.10,2013-05-07 18:13:00,
2013-05-07 14:28:00,75.4,65.0,30.05,WSW,238,3.0,16.0,70,0.00,,,0.00,weatherlink.com 1.10,2013-05-07 18:28:00,
2013-05-07 14:43:00,75.8,66.0,30.05,WSW,251,9.0,15.0,71,0.00,,,0.00,weatherlink.com 1.10,2013-05-07 18:43:00,
2013-05-07 14:59:00,75.9,66.0,30.05,West,280,8.0,18.0,71,0.00,,,0.00,weatherlink.com 1.10,2013-05-07 18:59:00,
2013-05-07 15:14:00,75.9,66.0,30.05,WNW,299,14.0,17.0,71,0.00,,,0.00,weatherlink.com 1.10,2013-05-07 19:14:00,
2013-05-07 15:29:00,76.5,67.0,30.04,NW,326,3.0,17.0,72,0.00,,,0.00,weatherlink.com 1.10,2013-05-07 19:29:00,
2013-05-07 15:44:00,77.1,66.0,30.03,NW,318,9.0,19.0,68,0.00,,,0.00,weatherlink.com 1.10,2013-05-07 19:44:00,
2013-05-07 15:59:00,76.8,65.0,30.03,West,277,11.0,19.0,67,0.00,,,0.00,weatherlink.com 1.10,2013-05-07 19:59:00,
2013-05-07 16:14:00,76.4,65.0,30.03,West,278,9.0,22.0,68,0.00,,,0.00,weatherlink.com 1.10,2013-05-07 20:14:00,
2013-05-07 16:29:00,76.8,65.0,30.03,West,278,9.0,18.0,68,0.00,,,0.00,weatherlink.com 1.10,2013-05-07 20:29:00,
2013-05-07 16:44:00,76.6,65.0,30.03,WNW,287,14.0,17.0,68,0.00,,,0.00,weatherlink.com 1.10,2013-05-07 20:44:00,
2013-05-07 16:59:00,76.9,65.0,30.03,West,267,16.0,21.0,67,0.00,,,0.00,weatherlink.com 1.10,2013-05-07 20:59:00,
2013-05-07 17:14:00,76.8,65.0,30.03,WNW,286,12.0,17.0,68,0.00,,,0.00,weatherlink.com 1.10,2013-05-07 21:14:00,
2013-05-07 17:29:00,76.7,65.0,30.03,WNW,283,9.0,19.0,68,0.00,,,0.00,weatherlink.com 1.10,2013-05-07 21:29:00,
2013-05-07 17:44:00,76.8,65.0,30.03,WNW,284,12.0,18.0,67,0.00,,,0.00,weatherlink.com 1.10,2013-05-07 21:44:00,
2013-05-07 17:59:00,76.4,65.0,30.03,West,267,13.0,22.0,67,0.00,,,0.00,weatherlink.com 1.10,2013-05-07 21:59:00,
2013-05-07 18:14:00,76.5,65.0,30.03,NW,308,10.0,22.0,67,0.00,,,0.00,weatherlink.com 1.10,2013-05-07 22:14:00,
2013-05-07 18:29:00,76.1,65.0,30.03,WNW,283,8.0,19.0,68,0.00,,,0.00,weatherlink.com 1.10,2013-05-07 22:29:00,
2013-05-07 18:44:00,76.0,65.0,30.03,WNW,287,8.0,19.0,69,0.00,,,0.00,weatherlink.com 1.10,2013-05-07 22:44:00,
2013-05-07 18:59:00,75.6,65.0,30.03,West,269,17.0,17.0,69,0.00,,,0.00,weatherlink.com 1.10,2013-05-07 22:59:00,
2013-05-07 19:14:00,74.8,64.0,30.03,WNW,283,9.0,18.0,70,0.00,,,0.00,weatherlink.com 1.10,2013-05-07 23:14:00,
2013-05-07 19:29:00,74.5,64.0,30.04,NW,307,11.0,17.0,70,0.00,,,0.00,weatherlink.com 1.10,2013-05-07 23:29:00,
2013-05-07 19:44:00,74.0,64.0,30.04,WNW,298,10.0,12.0,71,0.00,,,0.00,weatherlink.com 1.10,2013-05-07 23:44:00,
2013-05-07 19:59:00,73.3,64.0,30.04,NW,311,4.0,14.0,72,0.00,,,0.00,weatherlink.com 1.10,2013-05-07 23:59:00,
2013-05-07 20:14:00,72.7,64.0,30.04,West,276,8.0,14.0,73,0.00,,,0.00,weatherlink.com 1.10,2013-05-08 00:14:00,
2013-05-07 20:29:00,72.5,64.0,30.04,West,280,7.0,14.0,74,0.00,,,0.00,weatherlink.com 1.10,2013-05-08 00:29:00,
2013-05-07 20:44:00,72.3,64.0,30.05,NW,310,5.0,10.0,74,0.00,,,0.00,weatherlink.com 1.10,2013-05-08 00:44:00,
2013-05-07 20:59:00,72.2,64.0,30.06,WNW,300,9.0,13.0,75,0.00,,,0.00,weatherlink.com 1.10,2013-05-08 00:59:00,
2013-05-07 21:14:00,72.1,64.0,30.06,WNW,296,8.0,11.0,75,0.00,,,0.00,weatherlink.com 1.10,2013-05-08 01:14:00,
2013-05-07 21:29:00,72.1,64.0,30.06,NW,312,6.0,13.0,75,0.00,,,0.00,weatherlink.com 1.10,2013-05-08 01:29:00,
2013-05-07 21:44:00,72.0,64.0,30.07,WNW,286,7.0,12.0,75,0.00,,,0.00,weatherlink.com 1.10,2013-05-08 01:44:00,
2013-05-07 21:59:00,71.9,64.0,30.07,WNW,294,9.0,11.0,76,0.00,,,0.00,weatherlink.com 1.10,2013-05-08 01:59:00,
2013-05-07 22:14:00,71.8,64.0,30.07,WNW,286,9.0,13.0,75,0.00,,,0.00,weatherlink.com 1.10,2013-05-08 02:14:00,
2013-05-07 22:29:00,71.9,64.0,30.07,WNW,303,5.0,9.0,75,0.00,,,0.00,weatherlink.com 1.10,2013-05-08 02:29:00,
2013-05-07 22:44:00,71.8,64.0,30.08,NW,305,5.0,9.0,75,0.00,,,0.00,weatherlink.com 1.10,2013-05-08 02:44:00,
2013-05-07 22:59:00,71.7,63.0,30.08,NW,324,1.0,8.0,74,0.00,,,0.00,weatherlink.com 1.10,2013-05-08 02:59:00,
2013-05-07 23:14:00,71.7,63.0,30.08,NW,324,2.0,5.0,74,0.00,,,0.00,weatherlink.com 1.10,2013-05-08 03:14:00,
2013-05-07 23:29:00,71.5,63.0,30.09,NW,324,0.0,4.0,74,0.00,,,0.00,weatherlink.com 1.10,2013-05-08 03:29:00,
2013-05-07 23:44:00,71.3,63.0,30.09,NW,324,3.0,4.0,74,0.00,,,0.00,weatherlink.com 1.10,2013-05-08 03:44:00,
2013-05-07 23:59:00,70.9,63.0,30.09,NW,324,2.0,3.0,76,0.00,,,0.00,weatherlink.com 1.10,2013-05-08 03:59:00,